Theta_e
355 358 357 356 354 352 352 348 349 350 350 350 353 352 349 346 343 342 340 338 336 337 334 333 328 328 326 322 319 318 316 314 309 312 316 317 316 317 318 319 320 316 316
353 357 357 357 350 348 342 341 332 348 350 351 352 350 347 342 342 342 337 337 336 332 331 327 324 322 320 319 318 316 315 314 311 309 314 315 316 318 316 316 318 316 316
347 352 355 351 350 339 333 334 332 329 341 351 350 346 344 343 342 340 337 336 334 330 326 323 321 320 318 317 316 314 315 315 315 311 311 317 315 313 311 312 311 312 315
335 348 351 347 346 339 335 334 334 333 326 335 346 345 344 342 340 338 335 332 328 326 323 321 320 318 316 315 315 315 315 314 315 313 312 312 311 310 311 306 306 310 312
327 336 349 344 344 340 335 332 332 329 328 332 339 345 340 338 335 332 330 326 322 318 318 312 309 308 308 307 310 309 309 309 309 308 308 308 307 306 304 306 306 309 311
326 329 344 342 340 337 333 331 328 328 329 335 324 338 336 333 312 316 322 321 319 316 309 307 307 307 306 306 305 305 305 304 304 302 304 304 304 304 304 304 305 305 304
329 328 344 346 346 343 337 334 334 334 335 332 336 333 325 318 308 309 313 319 317 314 311 311 310 309 309 307 304 304 303 303 304 305 303 304 303 303 303 302 303 304 306
328 332 342 346 347 345 344 341 340 339 335 331 327 321 318 312 305 306 310 319 318 317 317 314 308 302 296 301 307 309 306 304 306 307 306 305 305 305 303 304 304 305 310
338 341 342 342 346 343 337 334 333 330 328 323 319 316 313 310 302 305 314 317 310 306 303 311 303 297 294 295 302 308 308 308 302 303 303 301 299 299 298 301 304 304 304
336 339 342 339 339 333 330 329 328 327 323 319 317 315 307 305 298 302 312 313 308 304 299 295 295 295 294 295 306 306 307 306 308 308 304 302 298 301 299 299 307 302 303
327 330 331 332 329 327 327 326 324 321 318 316 313 312 310 306 300 299 305 311 306 304 300 296 293 293 294 294 295 303 298 296 304 307 308 312 312 309 307 303 309 305 303
321 321 321 324 324 324 323 321 319 317 313 312 310 309 306 305 300 296 298 302 306 305 299 295 292 292 292 293 298 294 294 294 302 306 307 305 304 302 303 307 308 310 309
315 315 316 316 318 319 317 316 312 313 312 310 308 306 303 303 299 295 295 295 297 300 297 295 292 292 292 293 296 297 296 304 305 302 301 301 302 303 306 304 306 311 311
310 311 312 311 311 313 313 313 312 312 311 309 306 304 303 303 302 300 297 295 295 295 296 295 295 296 297 300 299 299 302 301 301 301 301 302 303 301 302 302 301 302 302
307 307 305 301 299 296 296 302 306 299 309 309 306 304 302 302 302 300 299 296 297 297 298 298 298 299 301 302 302 301 300 302 301 301 301 300 300 299 300 302 300 299 299
302 302 301 300 301 299 296 294 292 293 294 294 295 299 295 293 292 292 292 292 292 292 298 299 301 302 300 301 300 299 300 300 300 300 300 300 299 298 298 299 299 297 297
298 299 299 300 300 299 298 296 293 291 291 291 290 290 290 290 290 290 290 289 290 292 300 300 299 299 299 299 299 298 298 300 301 300 299 299 299 299 298 298 297 296 296
298 296 297 298 298 297 297 296 295 294 291 290 289 289 289 289 289 289 290 292 294 294 298 298 298 298 298 298 299 298 298 299 299 298 298 298 298 298 297 297 297 294 294
298 298 299 298 298 297 296 294 292 291 289 288 288 288 288 288 288 289 289 295 297 296 297 297 297 297 297 298 298 298 298 296 297 297 297 297 298 297 296 296 295 290 291
298 295 297 298 297 295 293 292 291 291 290 289 289 288 289 291 292 294 294 297 295 295 296 296 296 297 297 297 298 298 297 297 297 296 296 296 297 296 295 294 295 294 293
299 298 293 299 298 296 294 293 293 292 290 290 290 291 288 296 295 295 295 296 296 295 295 295 295 295 296 296 296 296 295 295 295 296 296 295 295 294 295 295 294 293 292
299 299 299 298 299 298 296 297 296 295 294 292 293 292 287 292 295 294 295 295 295 296 296 295 294 293 293 293 293 294 293 293 294 294 295 295 293 294 294 293 293 293 292
300 299 299 299 298 294 298 298 297 296 295 294 295 295 295 295 294 294 294 295 295 295 295 295 293 293 293 292 291 290 291 290 292 294 293 294 293 293 293 292 292 291 291
301 301 300 300 299 299 299 298 297 293 295 295 295 295 295 294 293 293 293 293 294 294 293 293 293 293 293 290 288 287 286 285 290 289 292 294 292 292 293 291 292 292 291
302 301 300 299 298 299 299 298 297 295 294 295 295 294 294 294 293 293 293 294 293 293 293 292 291 290 288 287 286 285 283 284 286 284 290 293 292 292 292 291 291 291 291
301 300 300 299 299 299 299 298 297 296 296 296 295 295 294 294 293 293 293 293 292 293 293 292 291 289 287 285 284 283 283 283 285 284 286 293 292 290 290 291 291 290 290
Wind_Speed
21 19 19 19 19 18 11 10 8 11 16 19 18 18 17 15 13 10 9 11 10 8 8 6 7 5 3 4 4 3 4 4 3 4 3 2 1 2 2 4 5 4 1
18 19 18 17 14 13 6 6 16 6 13 19 19 17 15 15 13 10 13 10 9 10 9 8 7 5 6 5 3 3 1 1 2 4 3 2 3 6 3 5 4 5 5
18 18 16 13 15 13 12 9 8 6 14 14 18 18 17 15 14 11 12 12 10 10 10 8 6 6 6 5 3 3 4 4 2 0 3 0 6 4 4 4 6 6 5
9 19 18 16 16 16 16 16 16 13 10 27 8 16 18 17 15 13 12 12 11 9 9 8 6 7 8 6 3 2 4 4 4 2 2 3 5 6 5 6 6 4 5
14 11 21 17 16 16 16 18 22 20 15 28 14 13 12 14 12 14 13 13 12 12 12 11 10 14 18 11 5 6 6 5 5 5 5 5 7 4 6 5 6 6 7
12 9 19 20 19 18 14 15 15 16 22 19 17 13 14 11 17 16 15 14 13 13 12 10 10 14 12 12 11 12 7 4 5 4 4 4 5 5 5 5 4 5 5
12 10 18 20 17 16 16 20 24 26 18 17 17 13 12 13 19 17 16 13 12 13 11 10 8 10 7 6 9 9 7 8 5 3 3 5 4 3 4 5 5 5 6
15 8 16 21 21 17 17 17 15 16 15 14 14 15 15 11 19 16 15 14 12 11 7 11 13 10 8 6 1 8 8 5 3 3 3 3 2 3 4 4 7 7 4
8 8 14 14 21 19 16 17 15 17 15 14 15 16 16 11 14 15 16 14 14 11 10 12 12 9 10 9 5 4 6 6 4 4 4 4 3 1 2 4 7 8 6
8 5 8 9 14 19 19 18 15 17 15 14 15 15 15 10 11 9 15 12 13 10 11 13 17 9 9 8 6 3 6 3 3 3 4 5 5 4 7 4 3 4 5
8 7 12 18 14 15 17 17 17 17 17 15 16 14 12 10 9 10 14 11 10 10 9 8 6 9 7 7 6 5 3 3 6 6 5 3 3 4 2 5 6 2 1
10 11 13 13 13 15 17 15 16 17 18 16 16 12 9 9 8 13 13 10 13 11 12 8 6 7 5 5 2 3 2 3 4 5 4 5 4 4 4 4 4 4 5
13 14 13 14 13 13 16 17 15 15 15 14 12 12 10 8 8 19 23 25 23 14 10 11 10 6 2 1 1 3 7 1 3 5 4 4 3 2 3 4 6 5 2
16 15 13 16 15 14 11 12 12 11 11 10 11 11 10 8 8 9 11 13 20 14 14 8 7 5 4 3 1 2 3 4 3 3 4 3 3 4 2 3 3 4 3
14 14 14 12 14 13 13 8 7 6 7 10 9 9 9 9 7 10 10 9 9 10 10 5 4 4 4 4 5 5 5 4 4 4 5 4 4 5 4 4 3 4 3
12 11 10 11 11 11 12 14 24 24 24 23 19 12 9 13 17 16 16 16 14 8 4 4 4 4 4 5 5 5 4 5 4 4 5 4 4 4 4 4 4 4 4
12 12 10 12 11 11 11 12 14 19 28 23 20 18 17 15 16 15 15 15 12 4 1 6 5 5 4 5 5 5 4 3 3 4 5 5 5 4 5 4 4 4 5
14 17 11 10 10 10 11 11 10 11 12 10 14 13 18 16 13 12 12 9 3 0 6 5 5 5 4 5 5 5 4 5 4 5 4 4 4 4 4 4 4 4 5
11 9 10 11 11 12 11 12 11 12 10 8 7 10 14 17 11 9 7 3 6 6 6 5 5 4 4 4 5 4 5 3 4 4 4 4 4 4 4 4 5 5 5
12 13 12 11 10 11 10 11 10 9 9 9 6 7 7 6 2 1 1 4 6 5 5 5 4 4 4 4 4 4 4 4 4 4 4 4 4 4 4 5 5 4 5
7 8 10 11 9 9 9 8 8 8 8 7 8 6 7 3 4 5 5 5 5 5 5 5 5 4 4 4 4 6 6 5 4 4 4 4 4 4 4 4 4 5 5
7 7 8 9 8 9 9 7 8 7 6 6 5 2 1 1 5 5 6 7 6 5 4 6 6 7 7 7 6 5 6 5 5 5 4 4 4 5 4 4 4 4 4
5 7 6 7 7 6 6 7 7 8 7 6 6 5 5 7 7 7 7 7 6 5 5 5 6 7 7 7 8 8 7 6 7 5 7 4 4 4 4 4 4 4 4
7 8 7 7 7 5 7 8 7 9 9 8 5 7 8 8 8 8 7 6 6 6 7 7 6 8 7 8 8 7 6 6 6 6 9 5 5 6 4 4 5 6 5
3 4 7 8 8 7 9 8 10 9 8 7 7 9 9 8 8 7 6 5 6 6 7 7 7 11 12 12 10 9 6 6 6 6 6 9 8 8 6 5 6 4 6
4 3 4 4 5 6 6 7 9 8 6 8 9 8 7 7 7 6 6 6 6 7 8 7 10 13 12 9 9 7 7 7 7 8 6 3 6 4 6 7 9 6 6
Wind_Direction
189 188 192 203 208 199 206 175 192 179 172 174 167 163 165 160 160 158 147 156 155 149 128 128 95 108 75 63 33 43 25 50 10 333 329 336 82 91 39 318 312 347 146
189 186 193 195 197 199 168 81 30 256 183 173 159 166 160 159 157 164 148 167 156 134 129 127 129 114 107 81 24 67 3 160 111 280 282 298 85 70 0 342 355 341 317
189 185 183 172 185 162 165 131 96 32 317 193 158 161 158 165 150 152 155 149 148 137 134 132 114 120 92 90 72 22 33 346 285 267 281 180 83 43 10 350 353 325 345
226 194 174 174 173 172 184 185 178 232 328 288 187 157 165 151 150 146 147 134 137 134 118 113 97 74 80 54 84 35 51 313 282 262 345 48 57 16 26 7 346 336 342
247 218 180 171 172 174 185 182 177 165 205 242 264 206 149 141 141 140 140 137 132 122 104 93 86 88 80 67 54 54 29 11 13 3 24 32 35 11 21 352 2 340 326
229 240 169 169 179 197 182 184 169 195 213 205 241 157 143 136 124 132 134 132 135 115 107 112 114 105 97 101 95 80 67 47 47 360 23 21 22 24 6 357 324 353 333
255 223 168 151 172 178 177 172 178 192 192 170 181 142 109 120 117 120 130 132 130 118 128 143 141 103 122 126 120 123 104 92 84 19 39 43 30 29 3 350 332 309 290
284 208 161 165 160 162 167 166 148 154 154 133 120 114 110 110 120 133 129 124 117 116 122 98 96 89 55 44 316 177 163 169 156 83 95 100 95 59 31 327 285 280 300
310 129 156 207 141 147 140 128 128 119 117 110 107 110 113 119 126 134 123 114 93 89 69 95 93 84 49 30 341 99 107 110 142 181 209 191 209 25 317 317 7 360 355
24 59 136 118 116 122 123 115 116 114 114 112 111 114 103 100 68 103 118 115 120 116 93 78 72 81 61 23 23 14 103 44 19 215 244 245 218 237 227 246 309 21 341
83 87 98 116 99 106 111 112 117 112 112 113 114 115 96 81 59 75 129 131 137 121 110 94 89 78 68 46 17 47 76 334 318 298 274 169 152 172 177 216 234 139 259
89 86 88 102 114 112 113 108 110 120 115 120 124 116 99 86 82 76 89 121 129 112 103 100 102 113 86 33 74 89 334 308 266 273 51 51 41 42 348 321 281 236 214
98 90 83 85 92 100 108 113 112 123 127 137 139 135 126 115 94 78 78 74 78 92 100 108 121 122 62 247 207 342 301 239 9 42 41 39 49 6 339 5 339 350 132
99 97 94 94 89 90 97 105 119 124 134 137 134 132 128 118 100 94 87 89 87 91 100 118 148 183 213 104 326 225 58 38 11 37 40 21 33 2 41 5 6 337 330
90 91 88 76 78 74 58 46 80 19 117 124 120 119 128 123 118 107 105 105 106 118 121 130 158 187 175 120 92 66 22 41 44 41 35 19 23 6 344 24 30 349 354
84 82 86 91 90 88 87 78 54 67 70 75 74 89 73 97 95 93 95 97 94 97 111 176 167 111 98 109 106 82 69 44 19 41 39 22 4 19 339 28 34 5 352
76 79 80 83 88 89 88 89 90 63 64 67 79 84 85 98 94 98 99 90 77 47 136 88 84 79 76 79 77 83 88 54 53 47 44 24 357 6 357 25 30 13 351
73 74 79 79 83 82 84 83 85 88 92 84 57 89 84 81 76 72 80 100 98 340 79 81 81 82 79 73 68 75 44 44 41 47 46 17 358 7 359 10 14 32 13
69 73 78 80 76 81 81 83 85 89 87 87 87 81 74 72 59 50 38 5 93 83 81 78 77 80 84 95 104 88 91 67 48 53 39 28 5 3 10 10 8 48 38
71 61 77 80 78 80 83 90 85 93 94 96 96 97 88 73 103 221 294 80 76 86 89 80 77 89 99 87 79 90 81 55 54 53 36 26 348 16 20 15 10 360 36
77 70 75 88 90 96 92 102 112 103 113 125 137 138 119 102 112 90 72 79 95 93 96 113 121 101 84 72 72 82 70 56 36 42 22 49 356 10 9 13 17 3 49
66 69 78 86 86 102 117 110 108 117 118 110 96 90 101 312 110 89 89 81 74 64 57 74 68 56 52 47 35 69 75 68 25 4 10 55 15 352 21 11 19 18 35
106 100 92 98 95 98 95 100 116 123 128 135 148 183 150 110 114 104 91 86 79 71 63 75 87 78 70 62 51 37 43 23 351 15 356 28 26 341 33 17 13 17 12
163 144 143 131 142 155 146 149 142 153 144 156 156 106 100 94 95 92 88 90 89 79 69 64 70 68 79 82 74 58 41 13 354 358 343 311 49 356 14 32 355 25 25
78 131 131 148 168 152 150 157 138 141 153 174 116 100 101 106 110 108 110 116 116 114 108 100 86 75 70 73 69 63 39 13 13 334 341 332 74 14 0 36 353 25 29
119 112 106 102 117 125 135 137 145 153 140 110 107 112 120 121 124 127 123 119 113 103 107 112 113 105 92 77 66 51 33 17 3 345 327 31 34 54 11 12 15 11 25